Погода в Солтанове

Россия / Костромская область     58°10′57″N   43°46′05″E
темп.,
°C
ветер,
м/с
пор.,
м/с
влажн.,
%
обл.,
%
осадки,
мм/ч
давл.,
гПа
погр.,
м
24 июля, сб
сб2400:00+10сз389813 0.0 1005264
03:00+8ссз289878 0.0 1007194
06:00+10с2893100 0.0 1008303
09:00+15с35545 0.0 1010971
12:00+16сз4544100 0.0 10111979
15:00+18зсз363486 0.0 10122454
18:00+17ссз464090 0.0 10131343
21:00+10ссз115910 0.0 101510
25 июля, вс
вс2500:00+9зюз226279 0.0 101733
03:00+8зюз236998 0.0 101844
06:00+12з1359100 0.0 1019112
09:00+17зюз234699 0.0 1019764
12:00+21з4735100 0.0 10192795
15:00+20сз3542100 0.0 10191990
18:00+20зсз25456 0.0 10201548
21:00+15зюз1159100 0.0 102011
26 июля, пн
пн2600:00+15зюз2258100 0.0 102133
03:00+14юз2459100 0.0 102288
06:00+15зюз266258 0.0 1022195
09:00+21зюз354048 0.0 1021851
12:00+24зюз453245 0.0 10212511
15:00+20з2752100 0.0 1020202
18:00+22зсз484978 0.1 10191364
21:00+15юз238941 1.2 101959
27 июля, вт
вт2700:00+14зсз379397 0.1 1020158
03:00+12сз25976 0.1 1020109
06:00+14ссз269217 0.0 1021207
09:00+20ссз35577 0.0 1021792
12:00+23сз374479 0.0 10201679
15:00+23сз36465 0.0 10191394
18:00+23с245016 0.0 10181175
21:00+17в017849 0.3 101911
28 июля, ср
ср2800:00+14ююз22909 0.0 101913
03:00+13зюз25966 0.0 101892
06:00+16юз268521 0.0 1017171
09:00+22юз4660100 0.0 1015528
12:00+27з47405 0.0 10131838
15:00+27зюз484184 0.0 10111236
18:00+26з484552 0.0 10091089
21:00+20зюз413647 0.0 1009420